EN

Hourly Weather Panka

Today, 3 March, Wednesday

Time Temperature Precipitation Wind Pressure Humidity
00:00 +1°C° 0 mm 6 mps 737 mmHg 96%
01:00 +2°C° 0 mm 6 mps 737 mmHg 98%
02:00 0°C° 0 mm 3 mps 737 mmHg 91%
03:00 0°C° 0 mm 3 mps 737 mmHg 96%
04:00 -1°C° 0 mm 3 mps 737 mmHg 94%
05:00 -1°C° 0 mm 2 mps 737 mmHg 91%
06:00 -1°C° 0 mm 3 mps 736 mmHg 91%
07:00 -1°C° 0 mm 3 mps 737 mmHg 92%
08:00 -1°C° 0 mm 3 mps 737 mmHg 96%
09:00 0°C° 0 mm 3 mps 737 mmHg 99%
10:00 +2°C° 0 mm 3 mps 738 mmHg 98%
11:00 +3°C° 0 mm 3 mps 738 mmHg 98%
12:00 +5°C° 0 mm 2 mps 738 mmHg 97%
13:00 +6°C° 0 mm 2 mps 738 mmHg 98%
14:00 +7°C° 0 mm 1 mps 737 mmHg 98%
15:00 +7°C° 0 mm 1 mps 737 mmHg 98%
16:00 +6°C° 0 mm 0 mps 736 mmHg 97%
17:00 +6°C° 0 mm 0 mps 736 mmHg 96%
18:00 +7°C° 0 mm 1 mps 735 mmHg 100%
19:00 +6°C° 0 mm 1 mps 735 mmHg 100%
20:00 +4°C° 0 mm 2 mps 735 mmHg 100%
21:00 +4°C° 0 mm 1 mps 734 mmHg 100%
22:00 +4°C° 0 mm 1 mps 733 mmHg 100%
23:00 +4°C° 0 mm 1 mps 733 mmHg 94%

Tomorrow, 4 March, Thursday

Time Temperature Precipitation Wind Pressure Humidity
00:00 +3°C° 0 mm 2 mps 732 mmHg 85%
01:00 +4°C° 0 mm 2 mps 732 mmHg 80%
02:00 +4°C° 0 mm 2 mps 732 mmHg 80%
03:00 +4°C° 0 mm 2 mps 731 mmHg 79%
04:00 +3°C° 0 mm 2 mps 730 mmHg 79%
05:00 +4°C° 0 mm 2 mps 730 mmHg 78%
06:00 +4°C° 0 mm 2 mps 729 mmHg 76%
07:00 +4°C° 0 mm 2 mps 729 mmHg 75%
08:00 +4°C° 0 mm 2 mps 728 mmHg 72%
09:00 +6°C° 0 mm 1 mps 728 mmHg 76%
10:00 +8°C° 0 mm 1 mps 728 mmHg 81%
11:00 +9°C° 0 mm 3 mps 727 mmHg 78%
12:00 +10°C° 0 mm 3 mps 727 mmHg 76%
13:00 +11°C° 0 mm 4 mps 727 mmHg 76%
14:00 +11°C° 0 mm 4 mps 727 mmHg 77%
15:00 +11°C° 0 mm 4 mps 726 mmHg 78%
16:00 +11°C° 0 mm 4 mps 726 mmHg 79%
17:00 +10°C° 0 mm 4 mps 725 mmHg 82%
18:00 +8°C° 0 mm 3 mps 725 mmHg 84%
19:00 +7°C° 0 mm 2 mps 725 mmHg 84%
20:00 +5°C° 0 mm 3 mps 725 mmHg 85%
21:00 +5°C° 0 mm 4 mps 725 mmHg 87%
22:00 +5°C° 0 mm 4 mps 725 mmHg 87%
23:00 +5°C° 0 mm 6 mps 725 mmHg 84%

Day after tomorrow, 5 March, Friday

Time Temperature Precipitation Wind Pressure Humidity
00:00 +6°C° 0 mm 4 mps 725 mmHg 89%
01:00 +6°C° 0 mm 2 mps 725 mmHg 90%
02:00 +6°C° 0 mm 2 mps 724 mmHg 90%
03:00 +6°C° 0 mm 2 mps 724 mmHg 90%
04:00 +6°C° 0 mm 2 mps 723 mmHg 89%
05:00 +5°C° 0 mm 2 mps 722 mmHg 92%
06:00 +5°C° 0 mm 2 mps 722 mmHg 91%
07:00 +6°C° 0 mm 2 mps 722 mmHg 87%
08:00 +5°C° 0 mm 3 mps 721 mmHg 87%
09:00 +6°C° 0 mm 2 mps 721 mmHg 88%
10:00 +7°C° 0 mm 6 mps 722 mmHg 92%
11:00 +2°C° 0.8 mm 7 mps 722 mmHg 100%
12:00 +1°C° 0.8 mm 5 mps 723 mmHg 100%
13:00 +2°C° 0.6 mm 5 mps 723 mmHg 100%
14:00 +2°C° 0.3 mm 5 mps 724 mmHg 100%
15:00 +1°C° 0.4 mm 6 mps 724 mmHg 100%
16:00 +1°C° 0.2 mm 4 mps 725 mmHg 100%
17:00 0°C° 1 mm 5 mps 725 mmHg 100%
18:00 0°C° 0.4 mm 5 mps 726 mmHg 100%
19:00 -1°C° 0.5 mm 5 mps 727 mmHg 100%
20:00 -1°C° 0.3 mm 4 mps 727 mmHg 100%
21:00 -2°C° 0.4 mm 4 mps 728 mmHg 100%
22:00 -2°C° 0.1 mm 5 mps 729 mmHg 100%
23:00 -3°C° 0.1 mm 4 mps 729 mmHg 100%

6 March, Saturday

Time Temperature Precipitation Wind Pressure Humidity
00:00 -3°C° 0 mm 4 mps 730 mmHg 99%
01:00 -3°C° 0 mm 4 mps 730 mmHg 100%
02:00 -5°C° 0 mm 5 mps 731 mmHg 100%
03:00 -4°C° 0 mm 4 mps 731 mmHg 99%
04:00 -4°C° 0 mm 4 mps 731 mmHg 100%
05:00 -4°C° 0 mm 4 mps 732 mmHg 99%
06:00 -5°C° 0 mm 5 mps 732 mmHg 99%
07:00 -5°C° 0 mm 5 mps 732 mmHg 98%
08:00 -4°C° 0 mm 4 mps 733 mmHg 100%
09:00 -5°C° 0 mm 5 mps 733 mmHg 99%
10:00 -4°C° 0 mm 5 mps 734 mmHg 97%
11:00 -3°C° 0.1 mm 6 mps 734 mmHg 93%
12:00 -2°C° 0.1 mm 5 mps 735 mmHg 84%
13:00 -2°C° 0.2 mm 5 mps 734 mmHg 84%
14:00 -4°C° 0.8 mm 5 mps 735 mmHg 95%
15:00 -2°C° 0.1 mm 5 mps 735 mmHg 89%
16:00 -4°C° 0.5 mm 5 mps 735 mmHg 88%
17:00 -4°C° 0.2 mm 6 mps 735 mmHg 90%
18:00 -4°C° 0.1 mm 4 mps 735 mmHg 88%
19:00 -4°C° 0 mm 4 mps 736 mmHg 84%
20:00 -4°C° 0 mm 3 mps 736 mmHg 84%
21:00 -4°C° 0 mm 3 mps 737 mmHg 80%
22:00 -3°C° 0 mm 2 mps 737 mmHg 82%
23:00 -4°C° 0 mm 3 mps 737 mmHg 88%

7 March, Sunday

Time Temperature Precipitation Wind Pressure Humidity
00:00 -3°C° 0 mm 2 mps 737 mmHg 92%
01:00 -4°C° 0 mm 2 mps 736 mmHg 92%
02:00 -4°C° 0 mm 2 mps 736 mmHg 91%
03:00 -4°C° 0 mm 2 mps 736 mmHg 87%
04:00 -4°C° 0 mm 2 mps 735 mmHg 86%
05:00 -4°C° 0 mm 2 mps 735 mmHg 85%
06:00 -5°C° 0 mm 3 mps 735 mmHg 83%
07:00 -5°C° 0 mm 3 mps 735 mmHg 82%
08:00 -5°C° 0 mm 3 mps 735 mmHg 84%
09:00 -3°C° 0 mm 2 mps 734 mmHg 85%
10:00 -2°C° 0 mm 3 mps 734 mmHg 78%
11:00 0°C° 0 mm 3 mps 734 mmHg 71%
12:00 +1°C° 0 mm 3 mps 734 mmHg 69%
13:00 +2°C° 0 mm 3 mps 733 mmHg 71%
14:00 +3°C° 0 mm 4 mps 732 mmHg 73%
15:00 +3°C° 0 mm 4 mps 732 mmHg 74%
16:00 +3°C° 0 mm 4 mps 731 mmHg 74%
17:00 +3°C° 0 mm 3 mps 731 mmHg 77%
18:00 +2°C° 0 mm 3 mps 730 mmHg 82%
19:00 +1°C° 0 mm 2 mps 730 mmHg 85%
20:00 -1°C° 0 mm 2 mps 729 mmHg 84%
21:00 -1°C° 0 mm 2 mps 729 mmHg 84%
22:00 -1°C° 0 mm 2 mps 729 mmHg 85%
23:00 +1°C° 0 mm 1 mps 729 mmHg 84%

8 March, Monday

Time Temperature Precipitation Wind Pressure Humidity
00:00 -1°C° 0 mm 2 mps 729 mmHg 85%
01:00 -2°C° 0 mm 2 mps 728 mmHg 86%
02:00 -2°C° 0 mm 2 mps 728 mmHg 87%
03:00 -2°C° 0 mm 2 mps 728 mmHg 86%
04:00 0°C° 0 mm 1 mps 727 mmHg 84%
05:00 0°C° 0 mm 1 mps 727 mmHg 84%
06:00 0°C° 0 mm 1 mps 727 mmHg 84%
07:00 0°C° 0 mm 1 mps 727 mmHg 83%
08:00 +1°C° 0 mm 1 mps 727 mmHg 85%
09:00 +1°C° 0 mm 2 mps 727 mmHg 82%
10:00 +2°C° 0 mm 2 mps 727 mmHg 80%
11:00 +4°C° 0 mm 2 mps 727 mmHg 80%
12:00 +4°C° 0 mm 4 mps 726 mmHg 76%
13:00 +3°C° 0 mm 5 mps 726 mmHg 74%
14:00 +5°C° 0 mm 5 mps 726 mmHg 74%
15:00 +3°C° 0 mm 5 mps 726 mmHg 74%
16:00 +4°C° 0 mm 4 mps 725 mmHg 78%
17:00 +4°C° 0 mm 4 mps 725 mmHg 77%
18:00 +3°C° 0 mm 4 mps 725 mmHg 82%
19:00 +2°C° 0 mm 3 mps 725 mmHg 84%
20:00 +1°C° 0 mm 3 mps 725 mmHg 91%
21:00 +1°C° 0 mm 2 mps 726 mmHg 100%
22:00 -1°C° 0 mm 3 mps 726 mmHg 100%
23:00 -1°C° 0.3 mm 3 mps 727 mmHg 100%
Show more

We Need Your Consent

Meteoprog and our Service Providers may store and access personal data such as cookies, device identifiers or other similar technologies on your device and process such data to personalise content and ads, as well as provide social media features and to analyse the traffic.

  • Store and/or access information on your device

    Cookies, device identifiers or other information can be stored or accessed on your device for the purposes indicated above.

  • Personalised ads and content, ad and content measurement, audience insights, and products development

    Ads and content can be personalised based on a profile. More data can be added to better personalise ads and content. Ad and content performance can be measured. Insights about the audience who saw the ads and content can be derived. Such data can be used to develop or improve user’s experience, systems and software.

By clicking ‘I Agree’ you will allow the use of indicated cookies, device identifiers, web beacons or other similar technologies. Your settings can be changed in the browser on your device.

For certain purposes, legitimate interests may be relied on, rather than consent. You can read more about this in our Privacy and Cookie Policy.